Location: Praha
(50.0830°N, 14.4670°E)
Time: 14:56:27
(UTC+01:00)

ISS - Pass Details

Date: 20 March 2023
Orbit: 414 x 423 km, 51.6° (Epoch: 21 March)

Event Time Altitude Azimuth Distance (km) Brightness Sun altitude
Rises 20:14:38 0° 260° (W) 2,354 1.0 -19.5°
Reaches altitude 10° 20:16:44 10° 262° (W) 1,491 -0.2 -19.8°
Maximum altitude 20:20:05 76° 349° (N) 433 -3.8 -20.3°
Enters shadow 20:20:08 76° 2° (N) 433 -3.8 -20.3°
